Location: Aulus
(42.7909°N, 1.3399°E)
Time: 13:26:48
(UTC+00:00)

deb Kosmos- 1980 - Pass Details

Date: 20 October 2025
Orbit: 834 x 854 km, 71.0° (Epoch: 16 November)

Event Time Altitude Azimuth Distance (km) Brightness Sun altitude
Rises 18:56:55 0° 340° (NNW) 3,400 ? -21.4°
Reaches altitude 10° 18:59:30 10° 347° (NNW) 2,459 ? -21.9°
Enters shadow 19:04:43 43° 55° (NE) 1,159 ? -22.8°
